Content
SEND FEEDBACK

Daily
Averages
Monthly
Summary
United States of America

RAPID CITY, SOUTH DAKOTA


Home > North America > United States > South Dakota
Elevation: 3162 feet     Latitude: 44 03N     Longitude: 103 04W

WEATHER
 
SELECT A DAY
Number of Records: 205,017;   Date Range: 1/1/95 - 12/19/14
 
SHARE

PRINT THIS DATA

[ ← Previous Day ]
WEATHER ALMANAC - NOVEMBER 5, 2013
[ Next Day → ]
[ °C ]   °F
Weather ElementAverageHighLow
Temperature27.2 °F30.2 °F (12:29 am)15.1 °F (11:52 pm)
Dewpoint24.4 °F28.4 °F (1:14 am)12 °F (11:52 pm)
Humidity89.3 %100 % (5:19 am)80 % (12:25 pm)
Barometer30.15 in30.25 in (8:52 am)30.07 in (3:07 am)
Wind Speed5.3 mph10.4 mph (9:52 am)
Weather ElementAverage
Visibility3.5 mi
Wind DirectionENE (73 °)

Weather ElementTotal
Precipitation0.72 in
Heating Degree Days42.4 (Base 65)
Averaged from 67 records on November 5, 2013
WEATHER CONDITIONS BREAKOUT
WIND DIRECTION BREAKOUT
WEATHER BY HOUR - NOVEMBER 5, 2013
[ °C ]   °F
Local TimeTemperatureDewpointHumidityBarometerVisibilityWind DirectionWind SpeedGust SpeedPrecipitationEventsConditions
12:29 AM30.2 °F26.6 °F86 %30.11 in1.8 miEast (100°)3.5 mph0.00 inSnowLight Snow
12:52 AM30.0 °F28.0 °F92 %30.17 in2.0 miEast (80°)3.5 mph0.01 inSnowLight Snow
1:14 AM30.2 °F28.4 °F93 %30.10 in1.8 miCalm0.01 inSnowLight Snow
1:22 AM30.2 °F28.4 °F93 %30.10 in1.5 miEast (100°)3.5 mph0.01 inSnowLight Snow
1:33 AM30.2 °F28.4 °F93 %30.10 in1.2 miEast (100°)4.6 mph0.02 inSnowLight Snow
1:52 AM30.0 °F28.0 °F92 %30.17 in1.0 miEast (100°)5.8 mph0.03 inSnowLight Snow
2:14 AM30.2 °F26.6 °F86 %30.09 in1.2 miENE (70°)9.2 mph0.01 inSnowLight Snow
2:24 AM30.2 °F26.6 °F86 %30.08 in1.8 miEast (90°)6.9 mph0.02 inSnowLight Snow
2:38 AM30.2 °F28.4 °F93 %30.08 in1.5 miENE (60°)5.8 mph0.02 inSnowLight Snow
2:42 AM30.2 °F26.6 °F86 %30.08 in1.5 miENE (70°)4.6 mph0.02 inSnowLight Snow
2:52 AM30.0 °F27.0 °F88 %30.14 in2.0 miNE (50°)5.8 mph0.03 inSnowLight Snow
3:07 AM30.2 °F26.6 °F86 %30.07 in3.0 miNE (50°)6.9 mph0.00 inSnowLight Snow
3:19 AM30.2 °F26.6 °F86 %30.07 in2.5 miNE (50°)3.5 mph0.00 inSnowLight Snow
3:41 AM28.4 °F26.6 °F93 %30.08 in1.5 miENE (60°)4.6 mph0.01 inSnowLight Snow
3:52 AM28.9 °F27.0 °F92 %30.16 in1.5 miENE (60°)4.6 mph0.01 inSnowLight Snow
4:06 AM28.4 °F26.6 °F93 %30.08 in0.8 miENE (60°)5.8 mph0.01 inSnowLight Snow
4:20 AM28.4 °F26.6 °F93 %30.08 in1.2 miCalm0.02 inSnowLight Snow
4:52 AM28.9 °F27.0 °F92 %30.17 in1.5 miNE (40°)5.8 mph0.04 inSnowLight Snow
5:19 AM28.4 °F28.4 °F100 %30.10 in1.0 miNE (40°)4.6 mph0.01 inSnowLight Snow
5:29 AM28.4 °F26.6 °F93 %30.10 in1.0 miNE (40°)4.6 mph0.02 inSnowLight Snow
5:38 AM28.4 °F26.6 °F93 %30.10 in1.2 miENE (60°)6.9 mph0.03 inSnowLight Snow
5:52 AM28.9 °F26.1 °F89 %30.19 in1.5 miENE (60°)6.9 mph0.03 inSnowLight Snow
6:27 AM28.4 °F26.6 °F93 %30.11 in0.5 miENE (70°)6.9 mph0.02 inFog-SnowLight Snow
6:52 AM28.9 °F26.1 °F89 %30.22 in0.5 miNE (40°)5.8 mph0.04 inFog-SnowSnow
6:55 AM28.4 °F26.6 °F93 %30.12 in1.0 miNE (40°)6.9 mph0.00 inSnowLight Snow
7:03 AM28.4 °F26.6 °F93 %30.12 in0.5 miNE (50°)6.9 mph0.01 inFog-SnowSnow
7:18 AM28.4 °F26.6 °F93 %30.13 in0.2 miNE (50°)5.8 mph0.02 inFog-SnowSnow
7:49 AM28.4 °F26.6 °F93 %30.14 in0.2 miNE (50°)5.8 mph0.04 inFog-SnowSnow
7:52 AM28.9 °F26.1 °F89 %30.24 in0.2 miNE (40°)6.9 mph0.04 inFog-SnowSnow
8:04 AM28.4 °F26.6 °F93 %30.14 in0.2 miNE (50°)8.1 mph0.01 inFog-SnowSnow
8:40 AM28.4 °F26.6 °F93 %30.15 in0.2 miNE (50°)6.9 mph0.03 inFog-SnowLight Snow
8:52 AM28.9 °F26.1 °F89 %30.25 in0.2 miNE (40°)9.2 mph0.04 inFog-SnowLight Snow
8:59 AM28.4 °F26.6 °F93 %30.15 in0.8 miNE (40°)9.2 mph0.00 inSnowLight Snow
9:08 AM28.4 °F26.6 °F93 %30.15 in0.2 miNE (40°)9.2 mph0.00 inFog-SnowLight Snow
9:52 AM28.9 °F26.1 °F89 %30.25 in1.0 miENE (60°)10.4 mph0.02 inSnowLight Snow
10:28 AM28.4 °F26.6 °F93 %30.16 in0.8 miENE (70°)9.2 mph0.01 inSnowLight Snow
10:49 AM28.4 °F26.6 °F93 %30.15 in1.0 miENE (60°)8.1 mph0.02 inSnowLight Snow
10:52 AM28.9 °F26.1 °F89 %30.25 in1.0 miENE (70°)8.1 mph0.02 inSnowLight Snow
11:12 AM30.2 °F26.6 °F86 %30.15 in1.5 miNE (50°)6.9 mph0.01 inSnowLight Snow
11:40 AM30.2 °F26.6 °F86 %30.14 in2.5 miENE (70°)6.9 mph0.01 inSnowLight Snow
11:48 AM30.2 °F26.6 °F86 %30.14 in3.0 miENE (70°)6.9 mph0.01 inSnowLight Snow
11:52 AM30.0 °F26.1 °F85 %30.24 in4.0 miENE (70°)6.9 mph0.01 inSnowLight Snow
12:08 PM30.2 °F26.6 °F86 %30.13 in5.0 miEast (90°)5.8 mph0.00 inSnowLight Snow
12:25 PM30.2 °F24.8 °F80 %30.13 in10.0 miEast (100°)5.8 mph0.00 inOvercast
12:52 PM30.0 °F25.0 °F82 %30.22 in10.0 miESE (120°)4.6 mph0.00 inOvercast
1:10 PM28.4 °F24.8 °F86 %30.12 in10.0 miESE (110°)4.6 mphOvercast
1:48 PM30.2 °F24.8 °F80 %30.11 in10.0 miCalmOvercast
1:52 PM30.0 °F25.0 °F82 %30.22 in10.0 miESE (110°)3.5 mphOvercast
2:24 PM30.2 °F24.8 °F80 %30.11 in10.0 miSE (130°)6.9 mphOvercast
2:39 PM28.4 °F24.8 °F86 %30.12 in10.0 miESE (120°)4.6 mphOvercast
2:52 PM28.9 °F24.1 °F82 %30.22 in10.0 miSSE (160°)4.6 mphOvercast
3:26 PM28.4 °F26.6 °F93 %30.12 in10.0 miSSE (150°)5.8 mphOvercast
3:52 PM28.9 °F24.1 °F82 %30.22 in10.0 miSouth (170°)5.8 mphOvercast
4:13 PM26.6 °F23.0 °F86 %30.11 in10.0 miSouth (170°)6.9 mphScattered Clouds
4:52 PM24.1 °F21.0 °F88 %30.24 in10.0 miSouth (170°)6.9 mphClear
5:52 PM21.0 °F19.9 °F96 %30.24 in10.0 miSSE (150°)4.6 mphClear
6:52 PM21.0 °F19.0 °F92 %30.24 in10.0 miSE (140°)4.6 mphClear
7:52 PM19.0 °F17.1 °F92 %30.24 in10.0 miESE (120°)3.5 mphClear
8:33 PM17.6 °F15.8 °F93 %30.11 in10.0 miESE (110°)3.5 mphPartly Cloudy
8:52 PM19.0 °F16.0 °F88 %30.24 in10.0 miESE (110°)3.5 mphScattered Clouds
9:28 PM17.6 °F15.8 °F93 %30.11 in3.0 miCalmMostly Cloudy
9:35 PM17.6 °F14.0 °F86 %30.11 in1.0 miCalmMostly Cloudy
9:44 PM17.6 °F14.0 °F86 %30.11 in0.5 miCalmFogLight Freezing Fog
9:52 PM18.0 °F16.0 °F92 %30.24 in0.2 miESE (120°)3.5 mphFogLight Freezing Fog
10:03 PM19.4 °F15.8 °F86 %30.11 in0.2 miESE (120°)4.6 mphFogLight Freezing Fog
10:52 PM17.1 °F15.1 °F92 %30.22 in0.2 miCalmFogLight Freezing Fog
11:52 PM15.1 °F12.0 °F88 %30.22 in0.2 miCalmFogLight Freezing Fog
Hourly data recorded from KRAP, located miles away from Rapid City, South Dakota







STORIES FROM OUR PARTNERS